[[{"header":{"parameterUnit":"m.s-1","parameterCategory":1,"la1":30.2991,"la2":30.254,"lo1":-89.0895,"lo2":-89.0444,"dy":0.0017,"dx":0.0017,"nx":28,"ny":28,"refTime":"2023-07-18T03:00:00:Z","depth":0,"parameterNumber":2,"parameterNumberName":"U-component_of_WINDS"},"data":[0,0,0,0,0,0,0,0,0,0,0,0,0,0,0,0,0,0,0,0,0,0,0,0,0,0,0,0,0,0,0,0,0,0,0,0,0,0,0,0,0,0,0,0,0,0,0,0,0,0,0,0,0,0,0,0,0,0,-0.3454,-0.3453,0,-0.3345,-0.3343,-0.3342,-0.3289,-0.3289,-0.3289,-0.3289,-0.3174,-0.3171,-0.3168,0,0,0,0,0,0,0,0,0,0,0,0,0,-0.3617,-0.3614,-0.3454,-0.3453,-0.3452,-0.3345,-0.3343,-0.3342,-0.3289,-0.3289,-0.3289,-0.3289,-0.3175,-0.3172,-0.3168,0,0,0,0,0,0,0,0,0,0,0,0,0,-0.3531,-0.3613,-0.3455,-0.3413,-0.3408,-0.3345,-0.3343,-0.3342,-0.3289,-0.3289,-0.3289,-0.329,-0.3177,-0.3172,-0.3168,-0.3138,0,0,-0.3153,-0.3151,0,0,0,0,0,0,0,0,-0.3536,-0.3525,-0.342,-0.3415,-0.341,-0.3331,-0.3359,-0.3273,-0.3289,-0.3334,-0.3289,-0.329,-0.3226,-0.3218,-0.3197,-0.3132,-0.3127,-0.3153,-0.315,-0.3148,-0.3147,0,0,0,0,0,0,0,-0.3542,-0.3529,-0.3411,-0.3419,-0.3412,-0.3399,-0.3387,-0.3342,-0.3281,-0.333,-0.3326,-0.3314,-0.3223,-0.3201,-0.3194,-0.3126,-0.3153,-0.3149,-0.3146,-0.3144,-0.3033,-0.3033,0,0,0,0,0,0,-0.3555,-0.3535,-0.3414,-0.3408,-0.3474,-0.3396,-0.3382,-0.3356,-0.3281,-0.327,-0.3314,-0.3312,-0.3209,-0.3199,-0.3189,-0.3151,-0.3148,-0.3144,-0.3141,-0.3033,-0.3033,-0.3033,0,0,0,0,0,0,-0.3559,-0.3545,-0.3419,-0.347,-0.3453,-0.3393,-0.3364,-0.3354,-0.3332,-0.3269,-0.3258,-0.3303,-0.3209,-0.3196,-0.3152,-0.3146,-0.3142,-0.3137,-0.3034,-0.3033,-0.3033,-0.3073,0,0,0,0,0,0,-0.3563,-0.3546,-0.3534,-0.347,-0.345,-0.3383,-0.3364,-0.3352,-0.3324,-0.332,-0.3256,-0.3245,-0.3208,-0.3159,-0.3147,-0.3139,-0.3134,-0.3034,-0.3034,-0.3033,-0.3072,-0.3074,-0.3076,0,0,0,0,0,-0.3569,-0.3549,-0.3534,-0.352,-0.3434,-0.3383,-0.3372,-0.333,-0.3324,-0.3312,-0.3272,-0.3247,-0.3149,-0.3155,-0.3141,-0.3132,-0.3034,-0.3034,-0.3033,-0.3071,-0.3073,-0.3076,0,0,0,0,0,0,-0.3612,-0.3539,-0.3522,-0.348,-0.3439,-0.3374,-0.3357,-0.3334,-0.3292,-0.329,-0.324,-0.3226,-0.3186,-0.3154,-0.3162,-0.31,-0.3089,-0.3086,-0.3122,-0.3124,-0.3126,-0.3135,-0.313,0,0,0,0,0,-0.3617,-0.3582,-0.352,-0.3489,-0.3469,-0.3417,-0.3393,-0.3365,-0.3319,-0.3301,-0.3258,-0.3213,-0.3173,-0.3147,-0.3106,-0.3067,-0.3053,-0.3054,-0.3056,-0.3058,-0.3056,-0.3035,-0.3035,-0.3032,-0.3032,-0.3032,0,0,-0.3626,-0.3582,-0.3563,-0.3497,-0.3461,-0.3426,-0.3402,-0.3365,-0.3339,-0.3295,-0.3251,-0.3218,-0.3165,-0.3125,-0.3104,-0.3097,-0.3054,-0.3058,-0.306,-0.3056,-0.3035,-0.3035,-0.3036,-0.3032,-0.3032,-0.3032,0,0,-0.3625,-0.3588,-0.3559,-0.3524,-0.3471,-0.3437,-0.343,-0.337,-0.3347,-0.3302,-0.3269,-0.3236,-0.3167,-0.3131,-0.3104,-0.3093,-0.3069,-0.3081,-0.3091,-0.3071,-0.3072,-0.3072,-0.3068,-0.3068,-0.3079,-0.3079,-0.3079,0,-0.3642,-0.3588,-0.3546,-0.3512,-0.3484,-0.3445,-0.3415,-0.3383,-0.3319,-0.3301,-0.3294,-0.3208,-0.3169,-0.3121,-0.3118,-0.3097,-0.3088,-0.3087,-0.3075,-0.3075,-0.3074,-0.307,-0.3069,-0.3081,-0.308,-0.308,-0.308,0,-0.3613,-0.3577,-0.3559,-0.35,-0.3471,-0.3439,-0.3392,-0.3367,-0.3343,-0.331,-0.3266,-0.3219,-0.3169,-0.3155,-0.3129,-0.3103,-0.31,-0.3085,-0.3073,-0.3077,-0.3073,-0.3071,-0.3083,-0.3083,-0.3082,-0.3082,0,0,-0.3634,-0.3554,-0.3548,-0.3522,-0.3462,-0.3432,-0.3399,-0.3352,-0.3332,-0.3289,-0.3261,-0.3205,-0.3191,-0.316,-0.3131,-0.3113,-0.3109,-0.31,-0.3098,-0.3104,-0.3078,-0.309,-0.3089,-0.3093,-0.3093,-0.3092,-0.3083,0,-0.3624,-0.3564,-0.3527,-0.3482,-0.3448,-0.3411,-0.3383,-0.3343,-0.3311,-0.3278,-0.3243,-0.3204,-0.3189,-0.317,-0.3152,-0.3114,-0.3103,-0.3114,-0.3066,-0.3065,-0.3081,-0.3087,-0.3099,-0.3092,-0.3081,-0.308,-0.308,0,-0.3605,-0.3566,-0.3518,-0.3463,-0.3448,-0.3423,-0.3377,-0.3346,-0.33,-0.3279,-0.3246,-0.3217,-0.3181,-0.3173,-0.3123,-0.3131,-0.311,-0.3089,-0.3087,-0.3081,-0.3073,-0.3081,-0.3089,-0.3088,-0.3077,-0.3077,-0.3078,0,-0.3626,-0.3561,-0.3524,-0.3503,-0.3438,-0.3422,-0.3394,-0.3348,-0.3323,-0.3283,-0.3266,-0.3222,-0.3198,-0.3165,-0.3125,-0.3122,-0.308,-0.3067,-0.3061,-0.3062,-0.3053,-0.3054,-0.3058,-0.3039,-0.3039,-0.3039,-0.3039,0,-0.3619,-0.3592,-0.3533,-0.351,-0.3479,-0.3436,-0.3406,-0.3375,-0.3336,-0.3307,-0.3272,-0.3246,-0.3194,-0.3162,-0.313,-0.3095,-0.3084,-0.3066,-0.3058,-0.3069,-0.3071,-0.3054,-0.3053,-0.3039,-0.3039,-0.3039,-0.3039,0,-0.3637,-0.3596,-0.3554,-0.3498,-0.3483,-0.3462,-0.3413,-0.339,-0.3358,-0.3322,-0.3311,-0.3261,-0.3221,-0.3178,-0.3123,-0.3102,-0.3068,-0.3057,-0.3084,-0.308,-0.3076,-0.3077,-0.3069,-0.3066,-0.3049,-0.305,-0.305,0,-0.3635,-0.3613,-0.3555,-0.3534,-0.3508,-0.3473,-0.3448,-0.3406,-0.338,-0.3329,-0.3312,-0.327,-0.3234,-0.3172,-0.313,-0.3089,-0.3076,-0.3076,-0.3069,-0.3082,-0.3077,-0.3079,-0.3077,-0.3078,-0.3078,-0.3079,-0.3079,0,-0.3637,-0.3619,-0.3584,-0.3542,-0.3513,-0.3478,-0.3442,-0.3426,-0.3377,-0.3351,-0.3311,-0.3283,-0.3228,-0.3187,-0.3141,-0.3112,-0.3088,-0.3082,-0.3078,-0.3089,-0.3106,-0.3098,-0.309,-0.3082,-0.3081,-0.3081,-0.3081,-0.3081,-0.3645,-0.3625,-0.3581,-0.3544,-0.3513,-0.348,-0.3457,-0.3423,-0.3389,-0.3342,-0.3319,-0.3279,-0.3236,-0.3172,-0.3144,-0.3112,-0.3104,-0.3099,-0.3098,-0.3097,-0.3101,-0.3112,-0.3103,-0.3103,-0.3103,-0.3103,-0.3103,0,-0.3645,-0.3616,-0.3583,-0.3534,-0.3505,-0.3486,-0.3446,-0.3423,-0.3388,-0.3351,-0.3317,-0.3272,-0.3232,-0.3189,-0.3147,-0.313,-0.3118,-0.312,-0.3121,-0.3115,-0.3109,-0.3117,-0.3131,-0.3131,-0.3131,-0.3131,-0.3131,-0.3131,-0.3642,-0.3607,-0.3585,-0.3535,-0.3505,-0.3467,-0.3446,-0.3416,-0.3386,-0.3338,-0.3305,-0.3278,-0.3238,-0.3194,-0.3157,-0.3145,-0.3132,-0.3138,-0.3123,-0.3118,-0.3115,-0.3113,-0.312,-0.3135,-0.3135,-0.3131,-0.3131,-0.3131]},{"header":{"parameterUnit":"m.s-1","parameterCategory":1,"la1":30.2991,"la2":30.254,"lo1":-89.0895,"lo2":-89.0444,"dy":0.0017,"dx":0.0017,"nx":28,"ny":28,"refTime":"2023-07-18T03:00:00:Z","depth":0,"parameterNumber":3,"parameterNumberName":"V-component_of_WINDS"},"data":[0,0,0,0,0,0,0,0,0,0,0,0,0,0,0,0,0,0,0,0,0,0,0,0,0,0,0,0,0,0,0,0,0,0,0,0,0,0,0,0,0,0,0,0,0,0,0,0,0,0,0,0,0,0,0,0,0,0,3.7909,3.7909,0,3.7849,3.7848,3.7847,3.7841,3.7841,3.7842,3.7842,3.7773,3.7771,3.7768,0,0,0,0,0,0,0,0,0,0,0,0,0,3.8011,3.8009,3.7909,3.7909,3.7908,3.7849,3.7848,3.7847,3.784,3.7841,3.7842,3.7843,3.7774,3.7771,3.7768,0,0,0,0,0,0,0,0,0,0,0,0,0,3.796,3.8009,3.7909,3.7898,3.7896,3.7849,3.7848,3.7847,3.784,3.7841,3.7842,3.7843,3.7775,3.7771,3.7768,3.7727,0,0,3.7757,3.7755,0,0,0,0,0,0,0,0,3.7963,3.7956,3.79,3.7898,3.7896,3.7853,3.7859,3.7806,3.784,3.7861,3.7842,3.7844,3.7799,3.7793,3.7779,3.7723,3.772,3.7756,3.7754,3.7753,3.7752,0,0,0,0,0,0,0,3.7967,3.7959,3.7885,3.7899,3.7897,3.7892,3.7886,3.7849,3.7825,3.7859,3.7859,3.7852,3.7798,3.7783,3.7778,3.7719,3.7756,3.7753,3.7751,3.775,3.7623,3.7622,0,0,0,0,0,0,3.7973,3.7962,3.7887,3.7883,3.7933,3.789,3.7883,3.7866,3.7826,3.782,3.7851,3.7852,3.7789,3.7782,3.7775,3.7722,3.7753,3.7749,3.7747,3.7624,3.7622,3.7621,0,0,0,0,0,0,3.7976,3.7967,3.789,3.7922,3.7912,3.7887,3.7868,3.7864,3.785,3.782,3.7815,3.7841,3.7789,3.778,3.7739,3.772,3.7748,3.7744,3.7625,3.7623,3.7622,3.7617,0,0,0,0,0,0,3.7979,3.7968,3.7954,3.7922,3.7911,3.7856,3.7867,3.7863,3.7844,3.7845,3.7809,3.7804,3.7789,3.7744,3.7735,3.7715,3.7741,3.7627,3.7624,3.7622,3.7619,3.7615,3.7612,0,0,0,0,0,3.7982,3.7954,3.7953,3.7944,3.7893,3.7855,3.7848,3.7835,3.7843,3.7827,3.7807,3.7805,3.7724,3.774,3.7729,3.7708,3.7628,3.7625,3.7623,3.762,3.7616,3.7613,0,0,0,0,0,0,3.7982,3.795,3.7948,3.791,3.7886,3.7854,3.7834,3.7831,3.7802,3.7803,3.7785,3.7777,3.7735,3.7718,3.7736,3.7665,3.7676,3.7671,3.7678,3.7674,3.7671,3.7675,3.7738,0,0,0,0,0,3.7978,3.7952,3.7924,3.7893,3.7881,3.786,3.7843,3.7834,3.7807,3.7797,3.7774,3.7746,3.7714,3.7693,3.7662,3.7616,3.7607,3.7597,3.7593,3.7591,3.7586,3.7558,3.7552,3.7612,3.7612,3.7612,0,0,3.7968,3.7947,3.7932,3.7892,3.7872,3.7843,3.7851,3.7821,3.7798,3.7791,3.775,3.7732,3.77,3.7655,3.7634,3.7639,3.7568,3.7588,3.7586,3.7583,3.7555,3.7549,3.7544,3.7611,3.7611,3.7611,0,0,3.7935,3.7918,3.7889,3.7869,3.784,3.7826,3.7819,3.7788,3.7776,3.7735,3.7729,3.77,3.7646,3.7622,3.7603,3.756,3.7555,3.755,3.7533,3.7505,3.7501,3.7496,3.7478,3.7472,3.7546,3.7546,3.7546,0,3.7926,3.7885,3.7873,3.7843,3.7824,3.7819,3.7787,3.7768,3.7729,3.7714,3.7721,3.7652,3.7629,3.7578,3.7567,3.7553,3.7541,3.7553,3.7503,3.7498,3.7494,3.7476,3.747,3.7545,3.7545,3.7545,3.7545,0,3.7874,3.7845,3.7824,3.7789,3.7768,3.7737,3.7718,3.7698,3.7691,3.7675,3.7631,3.7604,3.7567,3.7554,3.7546,3.75,3.7504,3.7507,3.7518,3.7488,3.7471,3.7464,3.7544,3.7545,3.7545,3.7545,0,0,3.7839,3.7797,3.779,3.7773,3.7739,3.7715,3.7682,3.7648,3.7629,3.7602,3.7572,3.7526,3.7528,3.7506,3.7495,3.7471,3.7435,3.7477,3.7475,3.7468,3.738,3.7376,3.7369,3.7433,3.7431,3.743,3.7382,0,3.7801,3.7746,3.7734,3.7684,3.7656,3.7649,3.762,3.7595,3.7579,3.755,3.7531,3.7498,3.7504,3.7491,3.7467,3.7445,3.7417,3.7448,3.7401,3.74,3.7408,3.7361,3.7358,3.7313,3.7375,3.7374,3.7373,0,3.7749,3.7723,3.7671,3.764,3.7627,3.7602,3.7568,3.7541,3.7511,3.7501,3.7476,3.7467,3.7429,3.7443,3.7389,3.7411,3.739,3.7376,3.7374,3.7368,3.7384,3.7351,3.7299,3.7292,3.7363,3.7364,3.7365,0,3.7727,3.7678,3.764,3.7626,3.7589,3.757,3.7553,3.7524,3.7503,3.7473,3.7458,3.7423,3.7403,3.7374,3.7354,3.7367,3.7301,3.7314,3.7288,3.7288,3.7273,3.7274,3.7216,3.7264,3.7264,3.7264,3.7264,0,3.7684,3.7652,3.7629,3.7606,3.7568,3.7554,3.7516,3.7499,3.7473,3.7443,3.7435,3.7407,3.7384,3.7352,3.7336,3.7292,3.7283,3.7272,3.7267,3.7271,3.7273,3.7257,3.7258,3.7262,3.7262,3.7263,3.7263,0,3.7652,3.7636,3.7594,3.7562,3.7553,3.7527,3.7499,3.7474,3.7458,3.742,3.741,3.7383,3.7345,3.7323,3.7275,3.7264,3.7214,3.7212,3.7225,3.7222,3.7197,3.7199,3.7125,3.7113,3.7171,3.717,3.717,0,3.7626,3.7601,3.7567,3.7548,3.7531,3.7501,3.748,3.7463,3.7441,3.7403,3.7382,3.7344,3.7312,3.725,3.7224,3.7186,3.7182,3.7158,3.7176,3.718,3.7178,3.7179,3.7175,3.7155,3.7154,3.7154,3.7153,0,3.7579,3.7572,3.7544,3.7511,3.7487,3.746,3.7433,3.7417,3.7395,3.737,3.7332,3.7307,3.7258,3.7218,3.7178,3.7157,3.715,3.7148,3.714,3.7143,3.715,3.7143,3.7214,3.715,3.715,3.715,3.7151,3.7151,3.7547,3.7525,3.7497,3.7464,3.7443,3.7417,3.7392,3.7373,3.7341,3.7301,3.7293,3.7251,3.7218,3.7164,3.7142,3.7107,3.7111,3.7099,3.7096,3.7093,3.7091,3.7158,3.7099,3.71,3.71,3.71,3.71,0,3.7499,3.7481,3.7451,3.7414,3.7388,3.7387,3.7356,3.7333,3.7298,3.7269,3.7239,3.7193,3.7154,3.7125,3.7085,3.7062,3.7058,3.7052,3.7052,3.7047,3.7091,3.7101,3.7056,3.7056,3.7056,3.7056,3.7056,3.7056,3.747,3.7431,3.742,3.7368,3.7349,3.7311,3.7293,3.7268,3.7245,3.7195,3.7164,3.7146,3.7116,3.7073,3.7036,3.7028,3.7012,3.7007,3.6998,3.7039,3.7044,3.7048,3.7058,3.7004,3.7004,3.6956,3.6956,3.6955]}]]